Time,TemperatureF,DewpointF,PressureIn,WindDirection,WindDirectionDegrees,WindSpeedMPH,WindSpeedGustMPH,Humidity,HourlyPrecipIn,Conditions,Clouds,dailyrainin,SoftwareType,DateUTC
2013-10-18 00:00:00,40.2,34.5,29.94,WNW,292,0.0,2.1,80,0.00,,OVC060,0.09,VWS V14.01,2013-10-18 05:00:00,
2013-10-18 00:05:00,40.2,34.5,29.94,WNW,292,0.0,1.0,80,0.00,,OVC060,0.00,VWS V14.01,2013-10-18 05:05:00,
2013-10-18 00:10:00,40.2,34.8,29.94,WNW,292,0.0,2.1,81,0.00,,OVC060,0.00,VWS V14.01,2013-10-18 05:10:00,
2013-10-18 00:20:00,40.1,34.8,29.94,WNW,291,0.0,1.0,81,0.00,,OVC060,0.00,VWS V14.01,2013-10-18 05:20:00,
2013-10-18 00:25:00,40.1,34.8,29.94,West,268,0.0,2.1,81,0.00,,OVC060,0.00,VWS V14.01,2013-10-18 05:25:00,
2013-10-18 00:35:00,40.0,34.7,29.94,NW,318,0.0,2.1,81,0.00,,OVC060,0.00,VWS V14.01,2013-10-18 05:35:00,
2013-10-18 00:40:00,39.9,34.5,29.94,NW,317,0.0,2.1,81,0.00,,OVC060,0.00,VWS V14.01,2013-10-18 05:40:00,
2013-10-18 00:45:00,39.8,34.5,29.94,WNW,296,1.0,3.1,81,0.00,,OVC060,0.00,VWS V14.01,2013-10-18 05:45:00,
2013-10-18 00:50:00,39.7,34.4,29.93,WNW,296,0.0,2.1,81,0.00,,OVC060,0.00,VWS V14.01,2013-10-18 05:50:00,
2013-10-18 01:00:00,39.6,34.3,29.94,WNW,296,0.0,2.1,81,0.00,,OVC060,0.00,VWS V14.01,2013-10-18 06:00:00,
2013-10-18 01:05:00,39.5,34.2,29.94,WNW,296,0.0,1.0,81,0.00,,OVC060,0.00,VWS V14.01,2013-10-18 06:05:00,
2013-10-18 01:10:00,39.5,34.2,29.94,West,279,2.0,9.4,81,0.00,,OVC060,0.00,VWS V14.01,2013-10-18 06:10:00,
2013-10-18 01:15:00,39.4,34.1,29.94,WNW,298,2.0,3.1,81,0.00,,OVC060,0.00,VWS V14.01,2013-10-18 06:15:00,
2013-10-18 01:25:00,39.4,34.1,29.94,NW,304,1.0,6.3,81,0.00,,OVC060,0.00,VWS V14.01,2013-10-18 06:25:00,
2013-10-18 01:35:00,39.5,34.5,29.94,NW,308,2.0,4.2,82,0.00,,OVC060,0.00,VWS V14.01,2013-10-18 06:35:00,
2013-10-18 01:40:00,39.5,34.5,29.94,WNW,302,0.0,4.2,82,0.00,,BKN060,0.00,VWS V14.01,2013-10-18 06:40:00,
2013-10-18 01:45:00,39.5,34.5,29.94,NW,304,0.0,5.2,82,0.00,,BKN060,0.00,VWS V14.01,2013-10-18 06:45:00,
2013-10-18 01:50:00,39.5,34.5,29.94,NW,318,5.0,5.2,82,0.00,,BKN060,0.00,VWS V14.01,2013-10-18 06:50:00,
2013-10-18 01:55:00,39.5,34.8,29.94,NW,308,0.0,7.3,83,0.00,,BKN060,0.00,VWS V14.01,2013-10-18 06:55:00,
2013-10-18 02:05:00,39.4,34.7,29.94,WNW,288,0.0,3.1,83,0.00,,OVC060,0.00,VWS V14.01,2013-10-18 07:05:00,
2013-10-18 02:15:00,39.3,34.6,29.95,WNW,289,0.0,2.1,83,0.00,,OVC060,0.00,VWS V14.01,2013-10-18 07:15:00,
2013-10-18 02:25:00,39.3,34.3,29.95,NW,308,0.0,2.1,82,0.00,,OVC060,0.00,VWS V14.01,2013-10-18 07:25:00,
2013-10-18 02:30:00,39.2,34.2,29.95,NW,308,0.0,1.0,82,0.00,,OVC060,0.00,VWS V14.01,2013-10-18 07:30:00,
2013-10-18 02:35:00,39.2,34.2,29.95,NW,304,0.0,1.0,82,0.00,,OVC060,0.00,VWS V14.01,2013-10-18 07:35:00,
2013-10-18 02:40:00,39.1,34.1,29.95,WNW,297,1.0,2.1,82,0.00,,OVC060,0.00,VWS V14.01,2013-10-18 07:40:00,
2013-10-18 02:45:00,39.0,34.0,29.95,WNW,284,1.0,2.1,82,0.00,,OVC060,0.00,VWS V14.01,2013-10-18 07:45:00,
2013-10-18 02:55:00,38.8,33.8,29.95,WNW,286,0.0,1.0,82,0.00,,OVC060,0.00,VWS V14.01,2013-10-18 07:55:00,
2013-10-18 03:00:00,38.7,33.7,29.95,WNW,286,1.0,2.1,82,0.00,,OVC060,0.00,VWS V14.01,2013-10-18 08:00:00,
2013-10-18 03:05:00,38.6,33.9,29.95,WNW,286,0.0,1.0,83,0.00,,BKN060,0.00,VWS V14.01,2013-10-18 08:05:00,
2013-10-18 03:10:00,38.5,33.5,29.95,WNW,286,0.0,1.0,82,0.00,,BKN060,0.00,VWS V14.01,2013-10-18 08:10:00,
2013-10-18 03:15:00,38.4,33.4,29.95,WNW,286,0.0,2.1,82,0.00,,BKN060,0.00,VWS V14.01,2013-10-18 08:15:00,
2013-10-18 03:25:00,38.1,33.4,29.95,WNW,294,0.0,1.0,83,0.00,,CLR,0.00,VWS V14.01,2013-10-18 08:25:00,
2013-10-18 03:30:00,37.9,33.2,29.95,WNW,294,0.0,2.1,83,0.00,,CLR,0.00,VWS V14.01,2013-10-18 08:30:00,
2013-10-18 03:35:00,37.7,33.0,29.95,WNW,294,0.0,1.0,83,0.00,,CLR,0.00,VWS V14.01,2013-10-18 08:35:00,
2013-10-18 03:40:00,37.5,32.8,29.95,WNW,298,0.0,3.1,83,0.00,,CLR,0.00,VWS V14.01,2013-10-18 08:40:00,
2013-10-18 03:45:00,37.2,32.5,29.95,WNW,298,0.0,2.1,83,0.00,,CLR,0.00,VWS V14.01,2013-10-18 08:45:00,
2013-10-18 03:50:00,37.1,32.4,29.95,WNW,302,0.0,2.1,83,0.00,,CLR,0.00,VWS V14.01,2013-10-18 08:50:00,
2013-10-18 03:55:00,37.0,32.3,29.95,WNW,302,0.0,1.0,83,0.00,,CLR,0.00,VWS V14.01,2013-10-18 08:55:00,
2013-10-18 04:00:00,36.8,32.1,29.95,WNW,302,0.0,1.0,83,0.00,,CLR,0.00,VWS V14.01,2013-10-18 09:00:00,
2013-10-18 04:10:00,36.2,31.5,29.95,WNW,302,0.0,1.0,83,0.00,,CLR,0.00,VWS V14.01,2013-10-18 09:10:00,
2013-10-18 04:20:00,35.4,30.8,29.96,WNW,302,0.0,1.0,83,0.00,,CLR,0.00,VWS V14.01,2013-10-18 09:20:00,
2013-10-18 04:25:00,35.0,30.4,29.96,WNW,302,0.0,0.0,83,0.00,,CLR,0.00,VWS V14.01,2013-10-18 09:25:00,
2013-10-18 04:35:00,34.5,29.6,29.96,WNW,302,0.0,0.0,82,0.00,,CLR,0.00,VWS V14.01,2013-10-18 09:35:00,
2013-10-18 04:40:00,34.2,29.3,29.96,WNW,302,0.0,0.0,82,0.00,,CLR,0.00,VWS V14.01,2013-10-18 09:40:00,
2013-10-18 04:45:00,34.0,29.1,29.96,WNW,302,0.0,0.0,82,0.00,,CLR,0.00,VWS V14.01,2013-10-18 09:45:00,
2013-10-18 04:50:00,33.8,28.9,29.96,WNW,302,0.0,0.0,82,0.00,,CLR,0.00,VWS V14.01,2013-10-18 09:50:00,
2013-10-18 05:00:00,33.4,28.5,29.96,WNW,302,0.0,1.0,82,0.00,,CLR,0.00,VWS V14.01,2013-10-18 10:00:00,
2013-10-18 05:05:00,33.2,28.3,29.96,WNW,302,0.0,0.0,82,0.00,,CLR,0.00,VWS V14.01,2013-10-18 10:05:00,
2013-10-18 05:10:00,33.0,28.1,29.97,WNW,302,0.0,1.0,82,0.00,,CLR,0.00,VWS V14.01,2013-10-18 10:10:00,
2013-10-18 05:15:00,32.9,27.7,29.97,WNW,302,1.0,1.0,81,0.00,,CLR,0.00,VWS V14.01,2013-10-18 10:15:00,
2013-10-18 05:20:00,32.8,27.6,29.97,West,274,0.0,2.1,81,0.00,,CLR,0.00,VWS V14.01,2013-10-18 10:20:00,
2013-10-18 05:25:00,32.6,27.4,29.97,West,276,0.0,2.1,81,0.00,,CLR,0.00,VWS V14.01,2013-10-18 10:25:00,
2013-10-18 05:30:00,32.6,27.4,29.97,West,275,1.0,3.1,81,0.00,,CLR,0.00,VWS V14.01,2013-10-18 10:30:00,
2013-10-18 05:35:00,32.6,27.4,29.97,West,275,0.0,3.1,81,0.00,,CLR,0.00,VWS V14.01,2013-10-18 10:35:00,
2013-10-18 05:45:00,32.3,27.1,29.98,WSW,252,1.0,3.1,81,0.00,,CLR,0.00,VWS V14.01,2013-10-18 10:45:00,
2013-10-18 05:50:00,32.0,26.8,29.98,West,267,1.0,3.1,81,0.00,,CLR,0.00,VWS V14.01,2013-10-18 10:50:00,
2013-10-18 05:55:00,31.9,26.7,29.98,West,269,2.0,2.1,81,0.00,,CLR,0.00,VWS V14.01,2013-10-18 10:55:00,
2013-10-18 06:00:00,31.7,26.5,29.98,West,273,1.0,2.1,81,0.00,,CLR,0.00,VWS V14.01,2013-10-18 11:00:00,
2013-10-18 06:05:00,31.6,26.5,29.98,West,272,4.0,4.2,81,0.00,,CLR,0.00,VWS V14.01,2013-10-18 11:05:00,
2013-10-18 06:10:00,31.6,26.5,29.98,West,272,0.0,4.2,81,0.00,,CLR,0.00,VWS V14.01,2013-10-18 11:10:00,
2013-10-18 06:15:00,31.5,26.4,29.98,West,265,0.0,2.1,81,0.01,,CLR,0.01,VWS V14.01,2013-10-18 11:15:00,
2013-10-18 06:20:00,31.5,26.4,29.98,West,272,0.0,2.1,81,0.01,,CLR,0.01,VWS V14.01,2013-10-18 11:20:00,
2013-10-18 06:25:00,31.4,26.2,29.99,West,269,0.0,3.1,81,0.01,,CLR,0.01,VWS V14.01,2013-10-18 11:25:00,
2013-10-18 06:35:00,31.5,26.4,29.98,West,281,0.0,2.1,81,0.01,,CLR,0.01,VWS V14.01,2013-10-18 11:35:00,
2013-10-18 06:40:00,31.6,26.5,29.99,West,279,1.0,3.1,81,0.01,,CLR,0.01,VWS V14.01,2013-10-18 11:40:00,
2013-10-18 06:50:00,31.7,26.5,29.99,West,275,1.0,2.1,81,0.01,,CLR,0.01,VWS V14.01,2013-10-18 11:50:00,
2013-10-18 06:55:00,31.7,26.5,29.99,West,262,0.0,2.1,81,0.01,,CLR,0.01,VWS V14.01,2013-10-18 11:55:00,
2013-10-18 07:00:00,31.8,26.6,29.98,West,280,1.0,3.1,81,0.01,,CLR,0.01,VWS V14.01,2013-10-18 12:00:00,
2013-10-18 07:05:00,31.8,26.6,29.99,West,268,1.0,3.1,81,0.01,,CLR,0.01,VWS V14.01,2013-10-18 12:05:00,
2013-10-18 07:15:00,32.0,26.8,29.99,West,271,0.0,3.1,81,0.01,,CLR,0.01,VWS V14.01,2013-10-18 12:15:00,
2013-10-18 07:20:00,32.0,26.8,29.99,West,272,1.0,2.1,81,0.00,,BKN060,0.01,VWS V14.01,2013-10-18 12:20:00,
2013-10-18 07:30:00,31.8,26.6,29.99,West,270,3.0,3.1,81,0.00,,BKN060,0.01,VWS V14.01,2013-10-18 12:30:00,
2013-10-18 07:35:00,31.6,26.5,29.99,West,272,0.0,3.1,81,0.00,,BKN060,0.01,VWS V14.01,2013-10-18 12:35:00,
2013-10-18 07:40:00,31.3,26.2,30.00,West,272,0.0,1.0,81,0.00,,BKN060,0.01,VWS V14.01,2013-10-18 12:40:00,
2013-10-18 07:45:00,31.1,26.0,30.00,West,271,1.0,2.1,81,0.00,,OVC060,0.01,VWS V14.01,2013-10-18 12:45:00,
2013-10-18 07:50:00,31.0,25.9,30.00,West,274,1.0,3.1,81,0.00,,OVC060,0.01,VWS V14.01,2013-10-18 12:50:00,
2013-10-18 07:55:00,31.0,25.9,30.00,West,273,0.0,3.1,81,0.00,,OVC060,0.01,VWS V14.01,2013-10-18 12:55:00,
2013-10-18 08:00:00,31.0,25.9,30.00,West,273,0.0,1.0,81,0.00,,OVC060,0.01,VWS V14.01,2013-10-18 13:00:00,
2013-10-18 08:05:00,31.2,26.1,30.00,West,273,0.0,2.1,81,0.00,,BKN060,0.01,VWS V14.01,2013-10-18 13:05:00,
2013-10-18 08:15:00,31.5,26.4,30.01,WSW,244,0.0,3.1,81,0.00,,BKN060,0.01,VWS V14.01,2013-10-18 13:15:00,
2013-10-18 08:25:00,31.8,26.6,30.01,WSW,245,1.0,1.0,81,0.00,,SCT060,0.01,VWS V14.01,2013-10-18 13:25:00,
2013-10-18 08:30:00,32.0,26.8,30.01,WSW,258,1.0,3.1,81,0.00,,SCT060,0.01,VWS V14.01,2013-10-18 13:30:00,
2013-10-18 08:35:00,32.3,27.1,30.01,West,259,1.0,2.1,81,0.00,,SCT060,0.01,VWS V14.01,2013-10-18 13:35:00,
2013-10-18 08:45:00,33.0,27.8,30.01,West,273,1.0,3.1,81,0.00,,CLR,0.01,VWS V14.01,2013-10-18 13:45:00,
2013-10-18 08:50:00,33.4,28.2,30.01,West,273,0.0,4.2,81,0.00,,CLR,0.01,VWS V14.01,2013-10-18 13:50:00,
2013-10-18 09:00:00,34.1,28.9,30.01,West,271,2.0,4.2,81,0.00,,CLR,0.01,VWS V14.01,2013-10-18 14:00:00,
2013-10-18 09:10:00,34.8,29.6,30.01,WNW,291,0.0,3.1,81,0.00,,CLR,0.01,VWS V14.01,2013-10-18 14:10:00,
2013-10-18 09:15:00,35.1,29.9,30.01,WNW,289,0.0,2.1,81,0.00,,CLR,0.01,VWS V14.01,2013-10-18 14:15:00,
2013-10-18 09:20:00,35.5,30.6,30.01,SW,225,0.0,6.3,82,0.00,,CLR,0.01,VWS V14.01,2013-10-18 14:20:00,
2013-10-18 09:25:00,35.9,31.0,30.01,West,273,2.0,3.1,82,0.00,,CLR,0.01,VWS V14.01,2013-10-18 14:25:00,
2013-10-18 09:35:00,36.7,32.0,30.01,West,279,0.0,4.2,83,0.00,,CLR,0.01,VWS V14.01,2013-10-18 14:35:00,
2013-10-18 09:45:00,37.6,32.9,30.01,West,277,0.0,2.1,83,0.00,,CLR,0.01,VWS V14.01,2013-10-18 14:45:00,
2013-10-18 09:50:00,37.9,33.2,30.01,West,280,0.0,4.2,83,0.00,,CLR,0.01,VWS V14.01,2013-10-18 14:50:00,
2013-10-18 09:55:00,38.4,33.7,30.01,WSW,257,0.0,3.1,83,0.00,,CLR,0.01,VWS V14.01,2013-10-18 14:55:00,
2013-10-18 10:00:00,38.9,34.2,30.01,West,279,0.0,6.3,83,0.00,,CLR,0.01,VWS V14.01,2013-10-18 15:00:00,
2013-10-18 10:05:00,39.4,35.0,30.01,NW,323,0.0,5.2,84,0.00,,CLR,0.01,VWS V14.01,2013-10-18 15:05:00,
2013-10-18 10:10:00,39.9,35.5,30.01,WNW,292,0.0,2.1,84,0.00,,CLR,0.01,VWS V14.01,2013-10-18 15:10:00,
2013-10-18 10:15:00,40.4,35.7,30.01,WNW,293,0.0,1.0,83,0.00,,CLR,0.01,VWS V14.01,2013-10-18 15:15:00,
2013-10-18 10:25:00,41.3,36.2,30.01,WNW,289,0.0,1.0,82,0.00,,CLR,0.01,VWS V14.01,2013-10-18 15:25:00,
2013-10-18 10:30:00,41.7,36.6,30.01,WNW,289,0.0,0.0,82,0.00,,CLR,0.01,VWS V14.01,2013-10-18 15:30:00,
2013-10-18 10:35:00,42.2,37.1,30.01,WSW,250,0.0,0.0,82,0.00,,CLR,0.01,VWS V14.01,2013-10-18 15:35:00,
2013-10-18 10:40:00,42.6,36.9,30.01,WSW,257,0.0,5.2,80,0.00,,CLR,0.01,VWS V14.01,2013-10-18 15:40:00,
2013-10-18 10:50:00,43.1,37.0,30.01,NW,306,0.0,7.3,79,0.00,,CLR,0.01,VWS V14.01,2013-10-18 15:50:00,
2013-10-18 10:55:00,43.3,36.6,30.01,WSW,250,0.0,4.2,77,0.00,,CLR,0.01,VWS V14.01,2013-10-18 15:55:00,
2013-10-18 11:00:00,43.6,37.5,30.01,WNW,292,0.0,5.2,79,0.00,,CLR,0.01,VWS V14.01,2013-10-18 16:00:00,
2013-10-18 11:05:00,43.8,37.7,30.01,SW,227,3.0,9.4,79,0.00,,CLR,0.01,VWS V14.01,2013-10-18 16:05:00,
2013-10-18 11:15:00,44.1,36.7,30.01,West,269,6.0,8.4,75,0.00,,CLR,0.01,VWS V14.01,2013-10-18 16:15:00,
2013-10-18 11:20:00,44.3,37.6,30.01,West,279,0.0,10.5,77,0.00,,CLR,0.01,VWS V14.01,2013-10-18 16:20:00,
2013-10-18 11:25:00,44.6,37.5,30.01,WSW,252,5.0,8.4,76,0.00,,CLR,0.01,VWS V14.01,2013-10-18 16:25:00,
2013-10-18 11:30:00,45.0,37.9,30.01,SW,233,6.0,9.4,76,0.00,,CLR,0.01,VWS V14.01,2013-10-18 16:30:00,
2013-10-18 11:35:00,45.3,37.5,30.00,West,259,6.0,7.3,74,0.00,,CLR,0.01,VWS V14.01,2013-10-18 16:35:00,
2013-10-18 11:40:00,45.5,37.4,30.00,WSW,252,3.0,8.4,73,0.00,,CLR,0.01,VWS V14.01,2013-10-18 16:40:00,
2013-10-18 11:45:00,45.8,37.3,30.00,West,260,3.0,9.4,72,0.00,,CLR,0.01,VWS V14.01,2013-10-18 16:45:00,
2013-10-18 11:50:00,46.2,38.4,30.00,WNW,298,1.0,4.2,74,0.00,,CLR,0.01,VWS V14.01,2013-10-18 16:50:00,
2013-10-18 12:00:00,47.0,38.1,30.00,SW,233,2.0,10.5,71,0.00,,CLR,0.01,VWS V14.01,2013-10-18 17:00:00,
2013-10-18 12:05:00,47.2,37.9,30.00,SW,225,2.0,8.4,70,0.00,,CLR,0.01,VWS V14.01,2013-10-18 17:05:00,
2013-10-18 12:10:00,47.7,39.1,30.00,SW,228,2.0,7.3,72,0.00,,CLR,0.01,VWS V14.01,2013-10-18 17:10:00,
2013-10-18 12:15:00,48.2,38.9,30.00,West,270,4.0,9.4,70,0.00,,CLR,0.01,VWS V14.01,2013-10-18 17:15:00,
2013-10-18 12:20:00,48.5,37.7,30.00,WSW,254,5.0,10.5,66,0.00,,CLR,0.01,VWS V14.01,2013-10-18 17:20:00,
2013-10-18 12:25:00,48.6,37.0,30.00,WNW,289,4.0,9.4,64,0.00,,CLR,0.01,VWS V14.01,2013-10-18 17:25:00,
2013-10-18 12:35:00,48.8,37.6,29.99,WSW,258,3.0,14.7,65,0.00,,CLR,0.01,VWS V14.01,2013-10-18 17:35:00,
2013-10-18 12:40:00,48.9,36.1,29.99,WSW,250,2.0,11.5,61,0.00,,CLR,0.01,VWS V14.01,2013-10-18 17:40:00,
2013-10-18 12:45:00,49.2,37.6,29.99,West,275,0.0,14.7,64,0.00,,CLR,0.01,VWS V14.01,2013-10-18 17:45:00,
2013-10-18 12:50:00,49.7,36.4,29.98,West,269,4.0,8.4,60,0.00,,CLR,0.01,VWS V14.01,2013-10-18 17:50:00,
2013-10-18 12:55:00,49.8,36.5,29.98,WSW,241,4.0,8.4,60,0.00,,CLR,0.01,VWS V14.01,2013-10-18 17:55:00,
2013-10-18 13:05:00,50.4,37.5,29.98,West,267,6.0,10.5,61,0.00,,CLR,0.01,VWS V14.01,2013-10-18 18:05:00,
2013-10-18 13:15:00,50.6,35.0,29.97,SW,231,7.0,12.6,55,0.00,,CLR,0.01,VWS V14.01,2013-10-18 18:15:00,
2013-10-18 13:25:00,51.0,36.3,29.96,West,269,0.0,8.4,57,0.00,,SCT055,0.01,VWS V14.01,2013-10-18 18:25:00,
2013-10-18 13:30:00,51.0,34.5,29.96,WNW,284,10.0,12.6,53,0.00,,SCT055,0.01,VWS V14.01,2013-10-18 18:30:00,
2013-10-18 13:35:00,51.2,34.7,29.96,NW,315,0.0,11.5,53,0.00,,SCT055,0.01,VWS V14.01,2013-10-18 18:35:00,
2013-10-18 13:40:00,51.2,34.7,29.96,West,281,2.0,10.5,53,0.00,,SCT055,0.01,VWS V14.01,2013-10-18 18:40:00,
2013-10-18 13:45:00,51.4,34.9,29.95,West,269,8.0,8.4,53,0.00,,SCT060,0.01,VWS V14.01,2013-10-18 18:45:00,
2013-10-18 13:50:00,51.4,33.9,29.95,West,260,6.0,12.6,51,0.00,,SCT060,0.01,VWS V14.01,2013-10-18 18:50:00,
2013-10-18 13:55:00,51.1,33.6,29.95,WNW,298,5.0,10.5,51,0.00,,SCT060,0.01,VWS V14.01,2013-10-18 18:55:00,
2013-10-18 14:00:00,50.4,33.0,29.94,West,281,6.0,7.3,51,0.00,,SCT060,0.01,VWS V14.01,2013-10-18 19:00:00,
2013-10-18 14:05:00,50.9,35.3,29.94,NW,306,1.0,9.4,55,0.00,,SCT060,0.01,VWS V14.01,2013-10-18 19:05:00,
2013-10-18 14:15:00,51.7,34.2,29.93,NW,305,0.0,8.4,51,0.00,,SCT060,0.01,VWS V14.01,2013-10-18 19:15:00,
2013-10-18 14:20:00,52.3,34.2,29.93,NW,308,0.0,5.2,50,0.00,,SCT060,0.01,VWS V14.01,2013-10-18 19:20:00,
2013-10-18 14:25:00,52.7,34.1,29.93,West,279,4.0,7.3,49,0.00,,SCT060,0.01,VWS V14.01,2013-10-18 19:25:00,
2013-10-18 14:30:00,52.8,34.2,29.92,West,269,0.0,9.4,49,0.00,,SCT060,0.01,VWS V14.01,2013-10-18 19:30:00,
2013-10-18 14:40:00,53.5,35.8,29.92,NW,324,0.0,7.3,51,0.00,,SCT060,0.01,VWS V14.01,2013-10-18 19:40:00,
2013-10-18 14:45:00,53.5,34.8,29.92,West,279,0.0,7.3,49,0.00,,BKN060,0.01,VWS V14.01,2013-10-18 19:45:00,
2013-10-18 14:50:00,53.2,34.5,29.92,NW,313,3.0,10.5,49,0.00,,BKN060,0.01,VWS V14.01,2013-10-18 19:50:00,
2013-10-18 14:55:00,52.9,33.2,29.92,West,271,4.0,12.6,47,0.00,,BKN060,0.01,VWS V14.01,2013-10-18 19:55:00,
2013-10-18 15:00:00,52.7,33.0,29.92,West,281,0.0,9.4,47,0.00,,BKN060,0.01,VWS V14.01,2013-10-18 20:00:00,
2013-10-18 15:05:00,52.7,33.6,29.92,West,275,6.0,10.5,48,0.00,,SCT075,0.01,VWS V14.01,2013-10-18 20:05:00,
2013-10-18 15:15:00,52.8,33.2,29.92,WSW,250,0.0,8.4,47,0.00,,SCT075,0.01,VWS V14.01,2013-10-18 20:15:00,
2013-10-18 15:20:00,52.6,34.5,29.92,West,275,0.0,6.3,50,0.00,,SCT075,0.01,VWS V14.01,2013-10-18 20:20:00,
2013-10-18 15:25:00,52.4,32.2,29.92,West,260,7.0,12.6,46,0.00,,BKN075,0.01,VWS V14.01,2013-10-18 20:25:00,
2013-10-18 15:30:00,51.9,31.8,29.92,West,267,9.0,13.6,46,0.00,,BKN075,0.01,VWS V14.01,2013-10-18 20:30:00,
2013-10-18 15:35:00,51.6,31.5,29.92,WSW,248,1.0,12.6,46,0.00,,BKN075,0.01,VWS V14.01,2013-10-18 20:35:00,
2013-10-18 15:40:00,51.3,31.8,29.92,WNW,286,2.0,8.4,47,0.00,,BKN075,0.01,VWS V14.01,2013-10-18 20:40:00,
2013-10-18 15:45:00,51.2,32.2,29.92,West,267,1.0,10.5,48,0.00,,BKN100,0.01,VWS V14.01,2013-10-18 20:45:00,
2013-10-18 15:50:00,51.5,33.5,29.92,West,265,8.0,8.4,50,0.00,,BKN100,0.01,VWS V14.01,2013-10-18 20:50:00,
2013-10-18 15:55:00,51.7,32.1,29.92,West,263,6.0,8.4,47,0.00,,BKN100,0.01,VWS V14.01,2013-10-18 20:55:00,
2013-10-18 16:05:00,51.5,32.0,29.91,West,269,1.0,8.4,47,0.00,,BKN100,0.01,VWS V14.01,2013-10-18 21:05:00,
2013-10-18 16:10:00,51.2,31.7,29.91,West,270,2.0,9.4,47,0.00,,BKN100,0.01,VWS V14.01,2013-10-18 21:10:00,
2013-10-18 16:15:00,51.1,32.1,29.91,SW,226,8.0,11.5,48,0.00,,BKN100,0.01,VWS V14.01,2013-10-18 21:15:00,
2013-10-18 16:20:00,51.0,32.0,29.91,West,261,6.0,8.4,48,0.00,,BKN100,0.01,VWS V14.01,2013-10-18 21:20:00,
2013-10-18 16:25:00,50.9,31.4,29.91,SW,216,4.0,8.4,47,0.00,,SCT075,0.01,VWS V14.01,2013-10-18 21:25:00,
2013-10-18 16:30:00,50.9,32.4,29.91,WNW,286,0.0,6.3,49,0.00,,SCT075,0.01,VWS V14.01,2013-10-18 21:30:00,
2013-10-18 16:35:00,50.8,32.3,29.91,West,263,1.0,7.3,49,0.00,,SCT075,0.01,VWS V14.01,2013-10-18 21:35:00,
2013-10-18 16:40:00,50.7,32.8,29.91,West,267,3.0,6.3,50,0.00,,SCT075,0.01,VWS V14.01,2013-10-18 21:40:00,
2013-10-18 16:45:00,50.5,33.1,29.91,SW,217,4.0,6.3,51,0.00,,BKN110,0.01,VWS V14.01,2013-10-18 21:45:00,
2013-10-18 16:50:00,50.4,33.0,29.91,West,279,4.0,6.3,51,0.00,,BKN110,0.01,VWS V14.01,2013-10-18 21:50:00,
2013-10-18 16:55:00,50.4,33.9,29.91,WNW,292,0.0,6.3,53,0.00,,BKN110,0.01,VWS V14.01,2013-10-18 21:55:00,
2013-10-18 17:05:00,50.3,33.8,29.90,West,277,3.0,8.4,53,0.00,,OVC110,0.01,VWS V14.01,2013-10-18 22:05:00,
2013-10-18 17:10:00,50.1,34.1,29.90,West,273,0.0,4.2,54,0.00,,OVC110,0.01,VWS V14.01,2013-10-18 22:10:00,
2013-10-18 17:20:00,49.8,33.8,29.90,West,281,0.0,8.4,54,0.00,,OVC110,0.01,VWS V14.01,2013-10-18 22:20:00,
2013-10-18 17:25:00,49.7,34.2,29.90,WNW,293,0.0,6.3,55,0.00,,OVC080,0.01,VWS V14.01,2013-10-18 22:25:00,
2013-10-18 17:30:00,49.5,34.5,29.90,West,275,3.0,4.2,56,0.00,,OVC080,0.01,VWS V14.01,2013-10-18 22:30:00,
2013-10-18 17:40:00,49.2,34.6,29.90,WSW,254,3.0,6.3,57,0.00,,OVC080,0.01,VWS V14.01,2013-10-18 22:40:00,
2013-10-18 17:45:00,49.1,35.0,29.90,West,261,0.0,4.2,58,0.00,,OVC075,0.01,VWS V14.01,2013-10-18 22:45:00,
2013-10-18 17:50:00,49.1,35.0,29.90,SW,232,0.0,4.2,58,0.00,,OVC075,0.01,VWS V14.01,2013-10-18 22:50:00,
2013-10-18 17:55:00,48.9,35.2,29.90,WSW,244,0.0,3.1,59,0.00,,OVC075,0.01,VWS V14.01,2013-10-18 22:55:00,
2013-10-18 18:00:00,48.8,35.1,29.89,West,264,2.0,4.2,59,0.00,,OVC075,0.01,VWS V14.01,2013-10-18 23:00:00,
2013-10-18 18:05:00,48.6,34.9,29.89,WSW,248,1.0,4.2,59,0.00,,SCT080,0.01,VWS V14.01,2013-10-18 23:05:00,
2013-10-18 18:10:00,48.3,35.1,29.89,WSW,246,1.0,1.0,60,0.00,,SCT080,0.01,VWS V14.01,2013-10-18 23:10:00,
2013-10-18 18:15:00,47.9,35.1,29.89,SW,225,0.0,1.0,61,0.00,,SCT080,0.01,VWS V14.01,2013-10-18 23:15:00,
2013-10-18 18:20:00,47.6,36.0,29.89,WSW,257,0.0,0.0,64,0.00,,SCT080,0.01,VWS V14.01,2013-10-18 23:20:00,
2013-10-18 18:30:00,46.7,36.0,29.89,NW,313,0.0,10.5,66,0.00,,SCT120,0.01,VWS V14.01,2013-10-18 23:30:00,
2013-10-18 18:40:00,46.1,36.5,29.89,NW,313,0.0,0.0,69,0.00,,SCT120,0.01,VWS V14.01,2013-10-18 23:40:00,
2013-10-18 18:50:00,45.4,36.9,29.89,NW,313,0.0,0.0,72,0.00,,OVC110,0.01,VWS V14.01,2013-10-18 23:50:00,
2013-10-18 18:55:00,45.0,36.5,29.89,NW,313,0.0,0.0,72,0.00,,OVC110,0.01,VWS V14.01,2013-10-18 23:55:00,
2013-10-18 19:00:00,44.6,36.5,29.89,NW,313,0.0,0.0,73,0.00,,OVC110,0.01,VWS V14.01,2013-10-19 00:00:00,
2013-10-18 19:05:00,44.2,36.5,29.89,NW,313,0.0,0.0,74,0.00,,OVC080,0.01,VWS V14.01,2013-10-19 00:05:00,
2013-10-18 19:15:00,43.4,35.7,29.89,NW,313,0.0,0.0,74,0.00,,OVC080,0.01,VWS V14.01,2013-10-19 00:15:00,
2013-10-18 19:20:00,43.2,35.8,29.89,NW,313,0.0,0.0,75,0.00,,OVC080,0.01,VWS V14.01,2013-10-19 00:20:00,
2013-10-18 19:30:00,42.6,36.2,29.90,SW,232,0.0,4.2,78,0.00,,,0.01,VWS V14.01,2013-10-19 00:30:00,
2013-10-18 19:35:00,43.1,36.7,29.90,West,273,4.0,9.4,78,0.00,,,0.01,VWS V14.01,2013-10-19 00:35:00,
2013-10-18 19:40:00,43.6,37.2,29.90,West,259,8.0,10.5,78,0.00,,,0.01,VWS V14.01,2013-10-19 00:40:00,
2013-10-18 19:45:00,43.6,37.5,29.90,SW,226,1.0,11.5,79,0.00,,RA,0.01,VWS V14.01,2013-10-19 00:45:00,
2013-10-18 19:50:00,43.4,37.7,29.91,WSW,242,9.0,13.6,80,0.00,,RA,0.01,VWS V14.01,2013-10-19 00:50:00,
2013-10-18 20:00:00,41.3,36.2,29.91,West,273,10.0,15.7,82,0.01,,RA,0.02,VWS V14.01,2013-10-19 01:00:00,
2013-10-18 20:05:00,40.6,35.2,29.91,SW,229,8.0,14.7,81,0.03,,OVC065,0.04,VWS V14.01,2013-10-19 01:05:00,
2013-10-18 20:10:00,40.6,34.9,29.91,SW,216,4.0,13.6,80,0.05,,OVC065,0.06,VWS V14.01,2013-10-19 01:10:00,
2013-10-18 20:20:00,40.6,34.9,29.90,SSW,198,5.0,8.4,80,0.06,,OVC065,0.07,VWS V14.01,2013-10-19 01:20:00,
2013-10-18 20:25:00,40.5,34.8,29.90,South,184,4.0,7.3,80,0.06,,BKN080,0.07,VWS V14.01,2013-10-19 01:25:00,
2013-10-18 20:30:00,40.5,34.8,29.89,SSW,207,2.0,6.3,80,0.06,,BKN080,0.07,VWS V14.01,2013-10-19 01:30:00,
2013-10-18 20:40:00,40.4,34.7,29.89,SSW,207,1.0,5.2,80,0.06,,BKN080,0.07,VWS V14.01,2013-10-19 01:40:00,
2013-10-18 20:45:00,40.4,34.7,29.89,SSW,204,0.0,4.2,80,0.06,,BKN080,0.07,VWS V14.01,2013-10-19 01:45:00,
2013-10-18 20:50:00,40.4,34.7,29.89,SSW,207,1.0,3.1,80,0.06,,BKN080,0.07,VWS V14.01,2013-10-19 01:50:00,
2013-10-18 20:55:00,40.3,34.6,29.89,SSW,197,0.0,5.2,80,0.06,,BKN080,0.07,VWS V14.01,2013-10-19 01:55:00,
2013-10-18 21:05:00,40.3,34.6,29.89,SSW,207,1.0,4.2,80,0.05,,BKN049,0.07,VWS V14.01,2013-10-19 02:05:00,
2013-10-18 21:10:00,40.3,34.6,29.89,SSW,209,0.0,4.2,80,0.03,,BKN049,0.07,VWS V14.01,2013-10-19 02:10:00,
2013-10-18 21:15:00,40.3,34.6,29.89,SW,216,4.0,5.2,80,0.01,,BKN049,0.07,VWS V14.01,2013-10-19 02:15:00,
2013-10-18 21:20:00,40.3,34.6,29.89,SW,215,2.0,6.3,80,0.00,,BKN049,0.07,VWS V14.01,2013-10-19 02:20:00,
2013-10-18 21:30:00,40.5,34.8,29.88,SW,220,4.0,9.4,80,0.00,,BKN047,0.07,VWS V14.01,2013-10-19 02:30:00,
2013-10-18 21:35:00,40.5,34.8,29.88,SSW,200,3.0,9.4,80,0.00,,BKN047,0.07,VWS V14.01,2013-10-19 02:35:00,
2013-10-18 21:40:00,40.5,34.8,29.88,SSW,196,5.0,8.4,80,0.00,,BKN047,0.07,VWS V14.01,2013-10-19 02:40:00,
2013-10-18 21:45:00,40.5,34.8,29.88,SW,219,5.0,8.4,80,0.00,,SCT047,0.07,VWS V14.01,2013-10-19 02:45:00,
2013-10-18 21:50:00,40.5,34.8,29.88,SSW,211,4.0,9.4,80,0.00,,SCT047,0.07,VWS V14.01,2013-10-19 02:50:00,
2013-10-18 22:00:00,40.2,34.5,29.88,SW,215,4.0,7.3,80,0.00,,SCT047,0.07,VWS V14.01,2013-10-19 03:00:00,
2013-10-18 22:10:00,39.5,33.8,29.87,SW,225,0.0,5.2,80,0.00,,CLR,0.07,VWS V14.01,2013-10-19 03:10:00,
2013-10-18 22:15:00,39.1,33.5,29.87,SW,214,2.0,5.2,80,0.00,,CLR,0.07,VWS V14.01,2013-10-19 03:15:00,
2013-10-18 22:20:00,38.8,33.2,29.87,SW,219,2.0,4.2,80,0.00,,CLR,0.07,VWS V14.01,2013-10-19 03:20:00,
2013-10-18 22:25:00,38.4,32.8,29.87,SW,217,2.0,4.2,80,0.00,,SCT095,0.07,VWS V14.01,2013-10-19 03:25:00,
2013-10-18 22:30:00,38.1,32.5,29.87,SW,217,0.0,5.2,80,0.00,,SCT095,0.07,VWS V14.01,2013-10-19 03:30:00,
2013-10-18 22:35:00,37.9,32.3,29.86,SW,225,0.0,4.2,80,0.00,,SCT095,0.07,VWS V14.01,2013-10-19 03:35:00,
2013-10-18 22:40:00,37.7,32.1,29.87,SW,229,3.0,5.2,80,0.00,,SCT095,0.07,VWS V14.01,2013-10-19 03:40:00,
2013-10-18 22:45:00,37.6,32.0,29.86,SW,235,0.0,5.2,80,0.00,,BKN095,0.07,VWS V14.01,2013-10-19 03:45:00,
2013-10-18 22:50:00,37.6,32.0,29.86,SW,223,2.0,5.2,80,0.00,,BKN095,0.07,VWS V14.01,2013-10-19 03:50:00,
2013-10-18 23:00:00,37.4,31.8,29.86,SSW,209,4.0,6.3,80,0.00,,BKN095,0.07,VWS V14.01,2013-10-19 04:00:00,
2013-10-18 23:05:00,37.2,31.6,29.86,SW,234,2.0,6.3,80,0.00,,OVC095,0.07,VWS V14.01,2013-10-19 04:05:00,
2013-10-18 23:10:00,37.0,31.4,29.86,SW,233,4.0,5.2,80,0.00,,OVC095,0.07,VWS V14.01,2013-10-19 04:10:00,
2013-10-18 23:15:00,36.9,31.3,29.86,SW,222,4.0,7.3,80,0.00,,OVC095,0.07,VWS V14.01,2013-10-19 04:15:00,
2013-10-18 23:20:00,36.7,31.1,29.86,SSW,213,2.0,6.3,80,0.00,,OVC095,0.07,VWS V14.01,2013-10-19 04:20:00,
2013-10-18 23:25:00,36.5,30.9,29.86,WSW,245,2.0,6.3,80,0.00,,BKN095,0.07,VWS V14.01,2013-10-19 04:25:00,
2013-10-18 23:30:00,36.4,30.8,29.86,SW,215,3.0,6.3,80,0.00,,BKN095,0.07,VWS V14.01,2013-10-19 04:30:00,
2013-10-18 23:35:00,36.3,30.7,29.85,SW,232,1.0,6.3,80,0.00,,BKN095,0.07,VWS V14.01,2013-10-19 04:35:00,
2013-10-18 23:40:00,36.2,30.6,29.85,SW,217,4.0,6.3,80,0.00,,BKN095,0.07,VWS V14.01,2013-10-19 04:40:00,
2013-10-18 23:45:00,36.1,30.5,29.85,SW,219,1.0,5.2,80,0.00,,SCT095,0.07,VWS V14.01,2013-10-19 04:45:00,
2013-10-18 23:50:00,36.0,30.4,29.84,SW,221,3.0,6.3,80,0.00,,SCT095,0.07,VWS V14.01,2013-10-19 04:50:00,
2013-10-18 23:55:00,36.0,30.4,29.84,SW,223,2.0,5.2,80,0.00,,SCT095,0.07,VWS V14.01,2013-10-19 04:55:00,